Terminal Aerodrome Forecast
Issued by NWS

Home | Current Version | Previous Version | Text Only | Print | Product List | Glossary On
Versions: 1 2 3 4 5 6 7 8 9 10 11 12 13 14 15 16 17 18 19 20 21 22 23
000
FTUS45 KREV 272300
TAFCXP
TAF
KCXP 272324Z 2800/2824 24010G18KT P6SM BKN200
     FM280200 22006KT P6SM SKC
     FM281600 20011G20KT P6SM SKC
     FM281900 21018G32KT P6SM FEW120 SCT250=

USA.gov is the U.S. government's official web portal to all federal, state and local government web resources and services.